Regional Weather Roundup
Issued by NWS

Home | Current Version | Previous Version | Graphics & Text | Print | Product List | Glossary On
Versions: 1 2 3 4 5 6 7 8 9 10 11 12 13 14 15 16 17 18 19 20 21 22 23 24 25 26 27 28 29 30 31 32 33 34 35 36 37 38 39 40 41 42 43 44 45 46 47 48 49 50
818
ASUS44 KLIX 291105
RWRLA
LOUISIANA WEATHER ROUNDUP
NATIONAL WEATHER SERVICE NEW ORLEANS LA
500 AM CST THU JAN 29 2015

NOTE: "FAIR" INDICATES FEW OR NO CLOUDS BELOW 12,000 FEET WITH NO
      SIGNIFICANT WEATHER AND/OR OBSTRUCTIONS TO VISIBILITY.
      SKY/WX - SKY CONDITION AND SIGNIFICANT WEATHER.
      TMP - AIR TEMPERATURE.    DP   - DEWPOINT TEMPERATURE.
      RH  - RELATIVE HUMIDITY.  PRES - PRESSURE.
      HX  - HEAT INDEX.         WCI  - WIND CHILL INDEX.

*  THESE STATIONS ARE NOT NWS OR FAA STATIONS AND ARE NOT UNDER
   NWS QUALITY CONTROL.

LAZ040-048-061>063-065-066-069-291200-
SOUTHEAST LOUISIANA

CITY           SKY/WX    TMP DP  RH WIND       PRES   REMARKS
N.O. AUDUBON   NOT AVBL
N.O. INTL ARPT PTCLDY    46  43  89 CALM      30.24R
N.O. LAKEFRONT CLEAR     51  46  83 CALM      30.25R
N.O. DOWNTOWN* NOT AVBL
SLIDELL        CLEAR     37  35  92 CALM      30.24R
BATON ROUGE    CLEAR     45  42  89 CALM      30.19F
BOOTHVILLE     CLEAR     50  47  89 E3        30.25S
BELLE CHASSE   CLEAR     41  37  86 CALM      30.24R FOG
BOGALUSA*        N/A     37  35  90 CALM      30.25F
GALLIANO*      FOG       41  40  98 MISG      30.23S VSB 1/4
NEW ROADS*     FAIR      46  44  93 CALM      30.20S
GONZALES*      FAIR      46  46 100 SE3       30.20F FOG
HAMMOND*       CLEAR     39  37  93 CALM      30.23F
HOUMA*         CLEAR     42  42 100 CALM      30.23S FOG
PORT FOURCHON* SUNNY     63  57  82 SE5       30.26S

$$

LAZ041-044-053-054-291200-
SOUTHWEST LOUISIANA

CITY           SKY/WX    TMP DP  RH WIND       PRES   REMARKS
LAKE CHARLES   FOG       52  52 100 CALM      30.17S VSB 1/4
LAFAYETTE      CLEAR     51  50  96 S3        30.18F
PATTERSON      CLEAR     52  50  93 S7        30.22F
SALT POINT       N/A     55  53  93 SE6       30.20F
NEW IBERIA     CLEAR     51  49  92 S3        30.19F FOG
CHENAULT AIRPK NOT AVBL

$$

LAZ027-028-291200-
CENTRAL LOUISIANA

CITY           SKY/WX    TMP DP  RH WIND       PRES   REMARKS
FORT POLK      FOG       55  54  97 S6        30.16S VSB 1
ALEXANDRIA INT CLOUDY    55  55 100 S10       30.15F FOG
ALEXANDRIA     CLOUDY    55  51  86 SW5       30.18F

$$

LAZ001-002-291200-
NORTHWEST LOUISIANA

CITY           SKY/WX    TMP DP  RH WIND       PRES   REMARKS
SHREVEPORT     PTCLDY    55  52  89 S8        30.11R
BARKSDALE AFB  CLEAR     47  47 100 S7        30.11S
DTN SHREVEPORT CLEAR     53  50  89 S6        30.11S

$$

LAZ014-016-291200-
NORTHEAST LOUISIANA

CITY           SKY/WX    TMP DP  RH WIND       PRES   REMARKS
MONROE         MOCLDY    54  50  86 S8        30.13F
TALLULAH       PTCLDY    50  42  74 S8        30.16S

$$




USA.gov is the U.S. government's official web portal to all federal, state and local government web resources and services.